RH
15 18 19 21 22 21 19 17 15 14 12 11 10 11 11 11 12 13 15 16 17 18 19 18 18 17 14 12 11 11 11 11 11 10 10 9 9 9 9 9 9 10 12 14 16 16 13 9 8 8 9 10 11 12 11 10 9 7 6 5 7 11 17 22 27 26 20 21 14 5 6 6 7 10 14 18 19 21 20 21 21 20 20 18 22 21 17 20
11 13 15 18 20 22 23 20 18 16 14 13 12 11 11 11 12 13 14 15 17 18 18 19 20 19 18 16 13 11 11 11 12 11 10 10 10 9 9 9 9 9 9 11 13 16 17 14 11 9 9 9 10 11 11 11 11 9 7 6 5 5 12 23 33 31 22 21 15 5 6 7 8 6 7 10 11 14 15 17 17 16 16 13 17 20 19 18
8 10 12 15 18 20 22 23 21 18 16 15 13 12 12 12 12 12 13 15 16 17 18 19 20 21 21 20 18 15 12 11 11 12 12 12 10 10 10 9 9 9 9 9 10 12 15 17 15 11 10 9 9 10 10 10 11 12 9 7 6 5 11 19 22 22 22 23 18 11 9 8 8 8 7 7 8 8 9 11 11 10 11 11 14 20 22 17
10 12 15 17 20 21 22 23 23 22 19 17 15 14 13 13 12 12 13 14 15 16 18 19 21 22 23 23 21 19 17 15 12 11 13 13 12 11 10 10 10 9 9 9 9 10 11 14 16 15 14 11 9 9 9 8 10 12 11 10 8 7 10 9 7 13 22 26 22 17 13 11 10 9 7 8 8 7 8 8 9 7 7 15 15 18 20 13
16 18 20 21 23 24 24 24 25 25 22 19 18 16 15 14 13 13 13 13 14 15 16 18 20 23 25 26 24 22 21 19 15 13 13 12 13 14 13 12 10 10 9 9 9 9 9 11 13 16 17 15 13 10 9 8 9 12 12 12 11 9 8 6 4 8 16 21 22 19 17 17 14 10 9 9 8 10 13 11 11 7 10 22 17 15 17 9
23 24 25 25 26 26 27 26 26 26 25 23 20 18 17 16 15 15 14 13 13 13 15 16 19 22 26 28 26 24 24 21 18 17 16 13 13 14 14 14 13 11 10 9 9 9 9 9 10 13 15 17 16 13 12 11 10 10 11 13 14 12 9 8 6 5 9 14 17 19 20 19 15 14 13 10 9 12 17 17 14 7 11 20 16 16 15 7
28 29 29 29 29 28 29 28 28 28 28 26 23 21 19 18 18 16 16 15 14 14 13 14 17 20 24 28 28 25 24 23 20 20 20 17 15 13 14 16 15 13 12 10 10 9 9 9 9 10 12 15 18 18 17 16 13 10 11 12 14 14 11 10 8 6 7 7 11 14 17 17 17 18 17 13 12 10 13 16 13 10 10 10 12 16 12 7
32 33 32 32 31 30 30 29 29 29 29 29 27 24 21 20 19 18 18 17 16 15 14 14 15 18 22 26 28 26 26 25 22 21 22 20 18 16 15 15 16 15 14 12 11 10 9 9 10 10 11 12 15 18 20 21 18 12 13 13 13 15 13 11 9 7 6 5 6 8 12 16 18 21 19 16 15 11 10 12 11 11 11 13 19 21 11 7
35 34 33 32 32 32 31 31 31 31 32 31 30 27 24 23 21 20 19 18 18 17 15 15 15 17 19 22 25 25 28 29 24 23 22 22 21 20 17 15 16 16 16 15 13 11 10 9 10 10 11 11 13 15 18 22 21 17 17 17 14 14 14 13 11 8 7 6 4 5 9 14 19 21 20 19 16 14 12 12 15 12 11 20 27 23 14 8
35 34 33 33 33 33 33 33 33 34 34 33 33 31 28 26 24 23 21 20 20 18 18 17 17 17 16 19 20 22 30 32 28 25 23 21 21 22 20 18 17 16 17 17 16 14 12 11 10 11 11 11 11 12 13 17 21 20 19 20 15 12 14 13 12 10 8 6 5 5 7 12 19 21 20 20 18 16 13 14 18 15 13 22 29 26 17 9
36 35 35 35 34 34 35 35 36 36 36 36 35 33 32 29 27 25 24 23 21 20 20 18 19 18 17 18 15 24 36 35 30 28 26 23 21 22 22 21 19 17 18 18 18 17 15 13 12 12 11 11 11 11 11 12 17 18 18 21 18 14 14 13 12 11 9 8 6 5 8 12 16 19 21 21 18 17 15 13 13 14 17 19 27 28 15 8
39 38 38 38 37 37 37 37 37 38 38 38 37 36 34 32 30 29 26 25 23 22 21 20 21 19 19 15 15 35 42 33 31 30 29 27 23 21 22 24 22 19 18 19 20 19 18 16 13 12 11 11 11 11 10 10 13 15 16 21 22 18 16 14 12 12 10 9 6 7 9 9 11 18 22 21 19 18 15 15 12 13 17 14 21 25 12 8
41 41 41 41 40 40 39 39 38 38 38 38 38 38 36 35 33 31 29 28 26 25 23 22 21 20 20 14 23 45 41 30 32 32 32 32 28 24 21 22 24 23 20 19 21 21 20 18 15 14 12 12 12 11 10 10 11 12 12 16 23 23 19 17 14 13 11 9 8 8 8 7 11 19 24 22 19 20 16 16 15 12 16 14 16 21 12 8
42 42 42 42 41 41 40 39 38 37 37 37 37 36 36 36 35 33 32 30 28 27 25 24 23 22 19 16 32 46 36 31 32 34 37 35 32 30 25 22 22 25 24 21 21 22 22 20 18 16 13 13 12 11 10 10 10 10 11 13 21 23 20 19 16 14 12 10 9 7 8 12 16 21 24 24 19 18 18 17 17 15 21 19 18 24 14 8
41 41 40 39 39 38 38 37 36 35 34 34 34 34 34 34 34 34 33 32 31 29 27 25 24 24 20 20 35 41 34 33 34 38 40 35 36 35 30 25 21 24 27 25 22 23 24 22 20 18 16 14 13 12 10 10 10 10 11 10 16 20 21 23 18 16 13 10 10 8 9 14 26 31 23 21 22 19 18 19 17 16 20 17 21 31 16 8
39 39 38 38 37 36 36 35 35 34 33 33 32 32 32 32 32 33 33 33 33 31 29 28 26 25 22 25 35 37 33 35 36 39 39 37 40 38 35 31 23 21 24 28 26 24 25 24 22 20 19 16 14 13 10 11 11 9 11 9 13 17 21 27 22 17 14 11 10 9 10 17 42 55 30 15 22 22 18 21 20 17 23 22 25 33 17 10
39 38 38 38 37 37 36 36 35 34 34 34 34 34 33 32 32 33 34 35 34 33 31 30 29 27 25 28 35 35 33 34 36 39 40 41 43 41 39 36 29 22 21 27 29 26 25 25 24 21 20 18 16 14 12 12 10 9 10 8 13 17 23 33 28 17 15 13 9 9 12 18 45 63 38 15 20 22 19 26 27 19 26 28 29 34 20 12
40 40 40 39 39 38 37 38 37 36 35 35 35 35 35 35 34 35 36 36 36 35 34 34 33 30 29 30 33 35 34 35 37 40 42 44 45 43 40 38 34 26 20 23 28 29 27 25 26 23 20 18 16 16 13 11 10 11 11 9 14 19 23 32 31 18 15 16 10 10 12 17 47 65 42 23 22 20 18 26 25 17 26 29 31 39 26 16
41 41 40 39 39 38 37 37 36 36 36 36 36 35 36 37 37 38 37 38 37 37 38 39 37 34 32 31 34 35 34 37 38 39 43 45 46 45 42 40 36 30 23 19 23 28 29 26 26 21 16 16 17 18 15 13 13 12 12 12 14 24 30 33 36 23 14 17 12 11 11 17 50 58 31 25 27 20 21 28 24 18 25 31 36 43 29 19
41 40 39 38 36 36 36 36 36 36 36 37 37 35 37 39 40 42 40 38 37 38 43 43 39 39 38 35 36 35 34 38 36 36 42 45 47 46 44 41 37 33 27 19 19 25 31 28 21 14 13 17 18 19 18 16 16 15 16 14 13 32 41 35 37 26 13 18 14 11 13 19 42 41 18 22 26 18 22 38 46 43 46 54 56 46 29 22
38 36 35 34 34 35 35 36 37 38 39 40 41 39 40 42 43 44 42 40 38 39 45 48 43 41 44 41 38 37 36 35 34 34 38 42 48 48 45 43 38 35 30 23 19 22 27 24 16 15 19 21 20 20 20 18 17 17 18 17 17 34 40 32 33 25 14 18 17 12 13 20 35 35 21 21 24 20 20 30 44 48 55 70 67 42 28 28
34 34 35 36 37 38 38 39 39 39 40 41 42 42 43 44 44 43 42 40 39 40 45 51 50 45 48 46 41 40 37 34 33 33 34 39 47 47 45 46 41 36 32 27 21 19 19 16 16 21 23 24 22 21 21 20 19 17 17 23 28 36 41 39 33 23 18 18 18 16 14 20 33 35 28 24 25 23 21 20 22 26 34 46 46 30 25 30
37 40 41 41 42 40 39 38 36 35 35 35 36 36 37 39 40 40 41 39 37 39 42 50 53 50 51 50 45 41 37 36 34 32 33 37 43 47 48 47 44 39 34 29 24 19 15 13 22 28 26 27 26 24 23 21 20 18 18 23 30 37 41 45 36 18 17 19 18 23 23 23 31 37 31 28 29 23 20 21 19 19 21 27 30 25 27 31
44 45 43 42 39 35 33 31 28 27 26 26 26 26 28 29 31 33 35 35 35 36 38 44 49 49 50 51 48 43 39 36 35 33 32 35 39 44 47 48 48 43 35 32 27 22 17 15 24 30 28 29 28 26 23 21 21 19 18 20 31 42 39 44 43 21 16 20 21 31 40 34 34 45 37 23 26 27 23 20 18 19 21 38 47 36 32 28
45 41 36 32 26 22 20 16 14 14 13 14 13 14 15 17 20 23 26 28 28 31 34 37 41 44 47 50 48 43 40 37 35 34 31 34 38 40 45 49 50 46 38 34 29 24 20 16 22 29 31 31 30 27 21 20 23 20 18 19 30 45 42 44 45 27 19 21 18 26 41 35 25 37 38 21 20 26 25 23 29 37 35 40 46 42 43 35
34 27 21 15 10 9 7 5 6 5 5 6 4 5 6 7 9 10 14 21 24 26 28 31 33 38 42 45 46 44 41 37 34 34 32 33 38 40 43 46 48 48 41 36 31 26 23 18 19 24 31 35 32 29 22 20 24 21 19 18 22 36 45 47 40 26 21 21 18 19 32 38 24 27 31 19 20 25 25 28 33 45 50 37 24 33 54 50
16 11 8 5 5 5 4 6 5 4 5 4 4 5 3 4 4 4 8 10 17 21 21 25 27 31 37 37 41 43 39 38 36 33 31 33 40 41 41 45 48 48 42 37 32 27 24 20 16 20 35 41 36 31 23 21 23 21 21 20 23 34 45 49 38 28 25 24 27 21 23 43 42 37 33 14 19 30 24 25 26 28 39 35 21 31 58 60
5 5 5 5 6 6 7 8 6 7 8 4 5 5 4 7 3 4 5 3 22 36 31 31 25 22 31 33 36 39 38 37 35 32 31 36 42 41 40 44 46 47 43 36 33 29 25 22 18 19 31 35 32 31 26 23 25 25 27 22 23 35 39 39 34 31 33 35 47 40 19 30 44 53 53 25 19 34 28 21 26 26 24 29 37 45 57 61
5 6 6 7 9 10 12 14 15 15 9 7 10 5 6 8 3 8 9 10 47 73 65 57 40 22 24 28 31 34 36 36 35 33 32 37 42 40 42 44 44 45 40 35 33 29 25 24 21 17 19 22 29 35 31 28 25 27 39 32 23 35 39 35 33 34 37 34 49 58 30 13 26 51 68 45 17 22 30 25 26 33 34 44 58 55 49 55
7 9 10 12 13 16 26 33 31 21 12 15 14 9 16 13 12 28 21 20 63 90 84 77 57 34 24 25 29 31 33 34 34 33 32 38 42 41 43 43 43 41 36 35 30 26 26 24 25 20 13 18 31 38 34 29 26 29 45 41 27 37 43 36 35 37 41 28 29 64 65 31 19 40 68 65 31 12 22 31 30 33 38 49 57 48 40 53
12 15 15 19 22 30 48 55 42 22 15 25 27 38 59 52 47 58 43 46 84 98 94 88 74 60 38 23 26 30 31 32 33 32 32 38 40 40 42 40 42 38 34 34 27 31 36 25 27 23 12 25 38 39 35 29 31 34 39 40 34 41 45 39 35 33 36 25 15 49 77 54 25 31 58 66 40 16 18 28 31 31 33 42 52 49 42 50
20 20 21 28 35 45 64 66 50 33 24 39 61 80 96 89 79 76 68 83 103 99 99 97 91 89 69 41 27 26 32 33 32 34 34 38 38 38 41 38 39 37 33 33 25 36 45 27 23 22 15 30 35 38 44 33 31 36 35 38 39 42 43 39 36 31 26 24 21 29 44 44 30 23 45 59 35 15 20 28 35 37 35 38 43 45 48 55
28 28 30 38 43 51 72 72 59 57 52 62 91 100 97 95 90 87 91 101 103 96 101 101 94 93 86 70 41 24 33 34 32 37 35 38 40 38 40 39 38 35 33 34 25 35 52 36 22 20 20 27 33 55 64 34 24 35 31 28 33 44 47 38 35 32 23 23 31 30 24 35 43 26 34 61 55 31 20 26 42 44 38 43 44 36 42 55
38 42 38 42 50 55 76 80 62 65 78 89 102 94 85 92 93 95 100 100 99 100 100 101 99 90 86 83 53 24 31 36 34 37 36 38 39 38 41 38 36 35 32 34 27 31 48 40 24 19 18 22 38 64 58 24 26 41 33 27 34 46 45 33 32 32 26 25 31 34 26 29 44 35 24 46 70 57 25 19 36 40 38 53 58 38 30 44
50 57 50 48 58 62 76 87 71 60 69 81 86 78 81 94 94 96 101 99 100 102 98 100 103 95 88 89 71 37 28 36 37 36 35 37 37 38 40 36 36 35 31 33 29 26 38 40 28 19 18 27 43 57 45 29 38 43 34 32 36 46 49 38 34 34 36 44 44 37 27 23 38 44 28 32 58 50 17 12 29 36 40 50 53 41 31 38
56 67 74 70 71 75 76 81 78 65 60 67 73 77 89 101 98 97 100 101 100 99 101 100 99 99 95 96 95 64 33 34 40 35 34 35 34 36 36 35 36 32 30 34 28 31 50 52 32 17 17 26 41 59 61 46 44 42 31 26 29 46 64 55 39 37 43 53 50 34 23 21 30 35 22 23 38 30 8 8 21 33 40 41 41 41 38 38
66 74 90 94 92 91 81 72 71 67 68 78 84 89 98 100 99 101 100 100 101 98 100 101 98 103 99 97 105 84 44 32 37 36 35 33 31 34 34 33 34 30 32 37 35 47 66 67 53 29 15 20 33 63 83 65 49 46 31 29 45 59 69 67 52 42 42 45 42 32 23 19 21 22 18 17 19 15 9 6 13 26 33 33 34 37 38 38
88 86 90 101 101 99 93 80 68 64 72 84 85 89 100 100 97 101 100 98 101 100 99 101 99 101 100 98 103 86 48 31 35 36 35 31 30 33 31 31 33 29 30 42 59 71 72 85 91 50 18 28 31 44 77 73 55 58 51 48 64 65 57 67 69 50 35 35 38 40 34 20 15 22 26 23 14 9 11 7 8 18 23 25 27 27 32 36
101 97 100 102 93 95 96 82 71 68 70 78 79 79 91 99 97 100 101 99 101 100 99 102 100 100 101 99 102 85 48 31 35 36 34 31 30 32 30 30 31 31 31 43 79 92 73 84 97 58 36 53 36 20 48 56 42 60 77 68 62 60 55 66 81 68 44 33 39 60 62 34 16 21 27 26 18 11 11 8 8 13 16 20 22 20 26 33
101 101 98 80 65 79 88 77 77 75 67 79 87 79 85 95 96 98 100 100 100 99 100 101 98 101 100 96 102 87 51 36 39 39 37 31 28 30 31 29 28 31 31 41 84 100 71 76 94 65 43 49 31 13 31 48 32 28 60 71 52 51 64 70 76 76 65 47 38 51 60 46 28 23 28 31 21 11 10 8 7 9 11 16 21 19 23 30
101 95 80 57 51 69 80 80 84 80 80 91 87 78 86 94 94 98 100 100 100 99 101 101 98 102 100 98 102 81 52 49 49 47 47 36 30 32 29 27 29 31 30 43 85 99 75 85 101 68 33 23 22 19 32 68 60 16 32 74 67 59 72 73 72 76 76 68 54 39 37 50 48 29 26 32 24 14 11 8 8 6 6 14 18 18 22 29
87 75 64 63 71 76 80 90 94 90 89 82 67 73 86 87 91 99 100 100 101 99 100 100 100 101 99 101 100 76 60 63 56 58 67 48 33 35 30 27 29 29 32 51 85 91 78 91 92 61 37 22 22 31 31 56 69 38 37 69 79 79 73 62 68 75 67 62 62 53 42 50 51 34 25 26 21 18 13 9 11 9 7 12 15 17 23 28
82 72 61 67 79 77 77 92 97 86 72 55 55 76 82 82 94 101 100 100 98 94 97 100 101 101 100 101 99 86 80 75 58 65 82 59 36 38 35 28 28 30 38 60 86 81 70 89 90 67 56 40 40 57 46 36 50 56 49 41 48 66 59 47 62 70 63 58 57 62 64 55 43 32 27 24 20 18 15 15 17 15 11 12 15 19 24 26
97 90 79 78 83 80 78 84 80 68 61 54 61 77 83 91 101 100 99 98 91 91 98 102 100 99 100 99 95 94 93 82 65 72 84 63 40 39 36 28 30 35 37 52 76 71 57 79 94 79 73 71 69 66 45 22 22 33 30 14 28 64 67 57 63 65 67 65 55 61 73 63 48 38 28 24 23 17 13 14 16 14 11 11 15 19 20 23
98 98 96 95 98 98 92 87 74 60 61 65 71 85 95 100 101 99 100 96 92 96 100 101 101 100 102 98 93 96 93 82 75 83 89 70 42 35 34 32 33 35 35 41 58 60 47 57 72 64 53 51 45 36 26 18 23 43 48 29 35 69 75 57 50 51 54 50 44 54 66 63 60 52 35 25 24 21 17 15 12 12 12 12 14 17 20 24
98 97 94 86 87 91 85 77 68 61 68 79 89 99 101 99 99 100 101 98 98 102 99 100 102 100 101 99 96 99 92 80 71 68 72 62 39 29 32 34 32 33 41 46 43 39 37 39 49 49 37 25 21 30 39 32 31 49 55 36 31 51 64 63 52 43 45 46 45 50 56 64 68 57 42 33 26 21 18 14 11 11 12 13 13 15 21 27
94 86 79 67 62 67 67 66 70 76 87 95 99 101 99 100 101 99 99 99 101 101 100 102 101 99 100 97 95 97 93 89 83 71 66 57 38 29 31 32 32 30 36 42 33 27 32 35 38 43 50 53 47 37 33 26 23 27 25 25 31 37 51 70 61 38 42 58 62 55 50 56 62 53 43 36 28 23 19 13 12 12 11 13 13 15 20 27
88 78 77 74 71 76 81 85 91 97 100 100 99 99 98 99 101 99 100 101 101 100 101 102 99 99 101 96 94 96 92 92 92 84 81 71 46 29 28 28 31 30 28 30 29 26 29 32 30 36 58 80 76 50 31 25 26 27 25 27 35 40 46 59 56 44 48 56 58 62 56 44 43 47 46 40 34 30 26 17 12 12 14 14 14 14 18 26
85 84 88 91 93 97 98 99 100 98 96 99 102 99 93 95 100 101 100 100 100 101 101 101 99 100 101 98 97 99 96 91 87 84 90 90 62 32 25 26 27 27 26 28 29 27 32 36 28 30 49 62 59 47 40 41 37 33 33 31 33 40 42 46 51 51 54 54 52 66 70 49 33 40 48 48 41 33 28 24 18 15 16 16 16 16 17 24
91 94 98 99 100 100 99 101 97 86 85 95 99 94 92 97 100 100 100 101 100 101 101 101 101 98 95 95 95 96 98 93 87 84 83 79 61 36 24 24 23 23 23 26 27 25 37 49 38 32 49 61 59 51 44 48 43 30 30 34 35 38 37 43 57 59 56 58 55 56 61 50 34 34 44 53 51 37 28 26 22 18 17 17 18 18 18 22
98 99 101 100 100 101 101 97 83 67 72 87 91 92 96 100 101 100 100 101 101 100 98 99 102 100 95 95 89 85 88 83 78 81 73 61 57 50 35 26 22 23 22 22 27 29 33 42 41 40 53 67 71 63 51 52 47 29 28 36 37 40 40 40 48 49 45 48 49 47 50 49 42 34 33 43 48 41 32 24 19 18 18 21 22 21 22 23
99 101 99 99 100 96 90 81 66 60 73 89 95 99 100 100 101 101 101 103 102 99 96 94 98 99 100 101 89 75 76 75 72 76 70 62 68 69 61 48 32 26 27 23 27 37 38 38 41 45 54 64 68 62 59 69 67 45 34 35 34 38 44 44 45 47 44 43 46 47 47 52 55 46 33 31 36 41 38 27 19 18 19 22 25 24 25 25
Wind_Speed
36 36 37 39 40 41 42 42 42 42 42 43 43 43 43 43 43 44 44 44 45 45 45 45 45 45 45 46 49 50 51 51 51 49 48 47 45 42 40 39 38 37 38 39 41 43 45 46 46 45 45 44 42 41 40 38 37 36 36 37 38 39 39 39 36 36 37 35 46 49 38 35 38 42 40 38 38 39 41 38 40 42 42 44 40 35 30 28
38 38 38 39 40 42 43 44 44 44 44 44 44 44 44 44 44 45 45 45 45 45 46 46 46 46 45 46 47 49 50 51 52 52 51 50 48 45 44 42 40 38 37 37 38 40 42 45 46 46 45 45 44 43 42 40 39 37 37 35 34 34 35 38 38 41 42 40 46 46 37 35 36 38 35 33 36 38 40 39 40 41 42 42 36 31 29 28
41 41 41 41 41 42 43 45 46 46 45 46 46 46 46 46 46 46 46 46 46 46 46 47 47 46 46 46 47 47 48 49 51 52 52 51 51 50 48 46 43 41 39 38 38 39 40 42 44 45 45 46 45 44 44 43 40 39 38 36 34 32 33 39 43 44 42 39 44 44 39 36 36 36 33 31 33 35 35 35 36 38 39 39 34 31 28 27
43 43 43 43 43 43 44 45 47 47 47 47 47 47 47 47 47 47 47 47 47 47 47 47 47 47 47 47 47 48 47 48 50 50 50 52 52 52 51 49 47 45 43 41 40 39 39 40 41 43 45 45 45 45 46 45 42 41 39 36 34 33 35 40 40 39 38 37 42 45 41 37 36 36 33 31 31 31 31 31 33 36 38 36 32 31 28 27
45 45 45 45 44 44 44 45 47 48 49 49 49 49 49 48 48 48 48 47 47 47 47 48 48 48 48 48 48 48 48 48 49 48 48 50 50 51 51 50 49 48 46 44 43 40 39 39 39 41 43 45 46 46 46 45 43 42 40 38 36 36 38 38 34 34 37 39 42 44 40 38 39 36 31 31 31 30 30 31 32 36 38 33 31 31 29 28
46 46 46 45 44 44 44 45 46 48 49 50 50 50 50 50 49 49 49 48 48 48 48 48 48 49 49 49 49 49 49 50 50 47 47 48 48 49 50 50 50 49 49 47 45 43 41 39 39 39 41 43 44 45 45 44 44 43 41 40 38 39 39 35 34 32 34 38 41 42 41 41 40 34 31 31 30 31 32 31 34 38 37 32 32 32 30 29
48 47 46 45 44 44 44 45 46 47 49 50 51 51 51 51 50 50 50 49 49 48 48 48 48 49 49 49 50 51 50 50 51 47 46 47 47 48 48 49 49 49 50 49 47 45 43 41 39 39 39 41 42 43 44 43 45 43 43 43 41 40 39 35 35 32 32 36 38 42 43 42 38 33 32 32 31 33 33 32 35 36 35 34 34 33 31 30
49 48 47 46 45 44 44 45 46 47 49 50 51 51 52 51 51 51 50 50 50 49 49 48 49 49 49 50 51 52 51 50 51 49 47 48 48 48 47 48 48 49 49 48 48 47 45 43 41 40 39 40 40 42 43 43 45 44 43 44 42 41 40 36 35 33 33 34 35 39 41 40 37 34 34 33 32 33 32 34 35 34 34 35 34 32 31 31
48 48 47 46 46 45 44 44 45 47 48 50 51 52 52 52 52 51 51 51 51 51 50 50 49 49 49 50 51 52 51 50 51 49 47 48 48 48 48 47 47 48 48 48 48 48 47 46 43 41 40 40 40 42 42 42 45 44 42 43 43 42 41 38 36 34 33 33 34 36 38 39 37 35 34 32 32 33 33 35 36 34 35 36 33 31 30 29
48 47 47 47 46 45 45 44 45 46 48 49 50 51 52 52 52 52 52 52 52 52 52 51 50 50 50 50 51 51 51 50 51 50 47 48 48 49 49 48 47 47 47 47 47 47 47 46 44 42 42 41 41 42 42 42 43 44 43 44 45 44 42 40 38 36 34 34 34 35 36 36 36 36 33 31 33 34 34 36 36 34 36 35 32 30 29 28
47 47 46 46 45 45 45 44 45 46 47 48 50 51 52 52 52 52 53 53 53 53 53 52 51 52 51 51 51 49 48 50 52 51 49 47 47 48 49 48 48 48 47 47 46 46 46 45 44 44 43 43 42 42 42 41 42 44 44 44 45 44 42 41 40 38 35 34 34 34 34 34 36 35 31 33 35 34 35 36 36 36 36 35 33 30 27 26
46 45 45 45 44 44 45 45 45 46 47 48 49 50 51 52 52 52 53 53 53 53 53 53 53 52 52 52 50 45 47 51 52 52 50 48 46 47 48 49 49 49 48 47 46 46 45 45 45 44 45 44 42 42 42 41 41 43 43 42 44 43 42 42 41 39 36 35 34 33 35 35 35 33 31 35 34 33 36 37 37 37 36 35 33 30 27 25
45 45 45 45 45 45 45 46 46 47 47 48 49 50 51 51 52 52 53 53 53 54 54 54 54 53 53 52 47 43 47 51 51 51 51 49 47 46 46 48 49 50 49 48 47 46 45 45 45 45 46 45 43 44 43 41 42 43 42 40 41 42 42 42 42 39 37 36 34 34 36 34 33 30 31 35 33 33 36 36 37 37 36 35 33 31 27 24
47 47 47 47 47 47 48 48 49 49 49 50 51 51 52 52 52 52 53 54 54 54 55 55 54 54 54 51 45 44 48 50 50 49 49 50 49 47 46 47 48 50 50 50 48 47 46 45 46 47 46 45 44 46 45 43 43 42 41 40 39 42 41 41 42 40 39 38 35 35 35 33 32 30 32 35 33 34 35 35 36 36 36 35 33 31 27 25
49 50 50 51 51 51 51 52 52 53 53 53 54 54 54 54 54 54 54 55 55 56 56 56 55 55 55 51 45 45 48 49 48 47 49 51 50 48 47 46 47 49 50 51 50 48 47 47 47 46 45 45 45 47 47 44 44 42 41 39 37 40 39 39 43 41 40 39 37 35 33 31 27 27 35 35 33 34 35 35 36 36 37 35 35 34 29 28
52 53 53 54 54 54 54 54 54 55 55 55 56 56 57 57 57 57 56 56 57 57 58 57 56 56 55 51 47 46 49 49 48 47 49 50 49 47 47 46 46 48 49 51 51 50 49 48 46 44 45 47 47 48 47 44 44 42 40 39 37 39 37 36 43 43 39 39 39 35 34 27 17 24 36 34 34 35 35 37 37 36 37 35 35 35 30 28
54 54 54 54 54 54 54 54 54 54 55 55 56 57 57 58 58 58 58 58 58 59 59 58 58 57 55 52 49 47 50 50 48 47 48 48 47 47 47 45 45 47 48 50 51 51 51 49 48 47 48 49 48 48 47 45 46 42 41 40 37 39 37 34 42 44 38 39 41 35 34 27 18 25 34 30 34 36 35 38 35 34 36 33 34 36 32 28
55 54 54 54 53 53 53 53 53 54 54 54 55 56 57 58 58 59 59 59 59 60 59 58 58 57 55 53 50 48 49 48 47 47 46 46 46 46 46 45 45 47 48 50 52 53 53 51 50 50 50 51 50 49 49 48 45 43 43 42 40 41 39 35 40 43 38 39 41 35 34 29 24 27 30 27 33 35 35 36 34 35 36 33 35 38 32 27
54 54 54 54 53 53 53 53 54 54 54 54 54 55 55 56 58 59 60 60 60 60 58 57 58 57 56 53 49 48 48 46 46 47 47 46 46 46 46 45 46 47 48 49 51 52 53 54 54 54 53 53 51 50 48 45 42 42 42 43 42 37 35 35 37 42 39 38 40 36 34 31 30 32 32 27 29 33 36 37 36 36 36 38 39 39 33 27
55 55 55 55 55 55 54 54 54 54 54 54 54 54 54 55 56 58 60 60 60 60 58 58 58 56 55 53 49 48 47 45 46 48 48 48 47 46 46 45 46 47 48 49 50 51 53 55 56 55 53 53 51 47 44 42 41 42 41 44 41 34 37 40 38 42 40 37 39 37 33 33 36 39 38 32 29 33 37 37 36 35 37 41 41 37 32 28
57 57 57 56 56 55 54 54 53 53 53 53 53 54 54 55 56 57 59 59 59 59 58 57 59 56 52 53 51 48 47 46 46 48 49 48 48 48 47 46 46 47 47 48 50 51 53 55 54 54 53 52 49 44 42 41 42 44 43 43 40 37 41 40 38 43 40 36 38 37 35 34 37 41 41 36 33 34 37 36 34 33 35 38 37 33 29 29
58 57 57 56 55 54 54 53 53 52 52 52 53 53 53 55 56 57 57 58 58 58 57 55 57 56 51 51 51 48 48 47 46 47 48 48 49 49 48 47 47 46 46 47 50 52 54 53 53 54 54 51 47 44 43 43 43 46 45 42 40 40 37 32 37 46 40 37 38 37 37 36 37 41 40 37 36 36 36 36 35 34 35 35 33 31 30 30
57 56 55 55 55 55 55 55 55 54 54 54 54 55 55 56 57 57 57 58 57 56 56 52 52 55 51 48 50 50 48 46 45 46 46 47 48 50 49 48 47 46 46 48 50 51 52 51 52 55 54 50 47 45 46 45 45 48 46 45 42 38 35 32 39 49 43 37 37 36 36 37 37 39 41 38 37 37 36 37 37 36 37 37 36 35 33 32
56 56 56 57 58 58 58 58 58 57 57 56 56 57 57 57 58 58 58 58 56 54 54 52 50 53 51 48 50 50 47 46 45 45 46 47 48 50 51 49 48 48 48 47 49 50 50 49 52 55 51 49 48 48 50 47 47 49 48 47 41 34 35 33 36 47 44 36 36 36 34 38 38 38 42 41 37 37 37 39 39 37 37 38 39 37 32 32
57 58 59 59 59 58 57 57 56 55 55 54 54 54 54 55 56 57 58 59 57 54 54 54 51 50 50 49 49 49 46 44 43 44 46 47 48 50 50 51 50 49 48 47 48 49 49 50 51 51 48 48 50 52 52 47 47 50 48 47 42 35 35 34 37 45 44 38 40 41 38 40 42 40 42 42 39 38 38 39 40 37 38 38 37 34 30 32
59 58 57 56 55 53 51 50 49 49 49 48 47 47 47 47 50 52 53 56 56 54 54 54 52 50 50 50 47 46 45 42 42 45 46 46 47 48 49 51 50 49 47 47 48 50 50 50 50 48 47 49 52 53 51 46 46 49 45 43 44 40 35 35 42 47 45 41 41 44 42 38 38 40 44 42 38 39 38 39 40 38 37 36 34 33 32 37
56 54 51 48 46 44 43 43 44 45 45 45 43 41 40 40 43 44 45 50 51 50 52 52 53 50 49 49 46 46 47 44 43 45 44 44 47 48 49 50 49 48 48 48 50 51 50 49 48 47 49 53 55 53 49 45 45 46 43 43 43 43 39 39 46 48 43 38 36 42 44 35 31 35 44 44 38 39 40 40 41 39 36 33 33 34 37 43
48 45 43 40 39 39 38 40 42 43 43 44 41 39 38 36 37 37 38 41 39 39 43 46 49 48 47 48 46 46 47 45 44 44 44 45 48 49 49 48 48 48 48 49 51 51 49 47 48 51 55 57 54 50 47 44 45 43 42 44 43 43 46 46 47 46 40 33 29 38 46 41 33 31 36 41 40 41 40 42 43 39 38 36 34 38 43 45
40 38 36 35 35 35 36 37 39 42 43 42 39 37 35 33 33 32 33 32 28 28 33 37 41 44 45 45 44 45 46 45 45 45 44 46 48 49 48 47 48 47 48 49 49 50 47 45 50 55 55 53 48 46 45 45 46 42 39 42 43 43 47 47 45 42 39 37 32 32 41 47 43 33 28 34 42 45 40 41 44 40 39 39 36 39 43 41
34 33 33 32 33 32 31 32 35 38 38 35 34 29 26 27 27 27 29 25 21 22 26 30 35 38 41 42 42 45 46 46 47 45 45 46 48 49 49 48 48 48 49 50 49 48 45 46 53 56 50 46 45 45 46 47 45 41 39 43 44 45 46 46 46 41 37 42 42 31 31 43 48 40 30 29 36 43 43 41 42 41 39 37 37 41 41 36
29 30 30 29 28 25 24 30 34 32 27 23 18 14 17 20 21 21 22 19 16 17 20 22 26 29 34 39 41 43 45 46 46 44 46 47 49 50 51 50 50 50 51 51 49 46 46 51 56 54 46 43 46 46 46 48 43 40 46 47 44 45 46 46 47 45 42 47 50 41 31 36 46 44 35 33 36 39 41 42 42 42 40 38 38 40 38 34
25 26 26 23 21 20 21 27 31 26 16 8 9 18 21 18 17 16 15 17 16 14 16 19 22 23 26 33 38 41 43 45 44 44 46 47 48 50 51 50 50 51 52 52 50 47 48 55 57 52 43 44 49 45 45 50 43 42 51 51 44 44 46 48 48 49 48 48 50 50 42 35 40 44 36 34 41 39 37 39 41 42 41 39 42 41 36 34
22 21 20 18 17 18 19 22 24 23 11 11 18 18 19 16 13 14 17 20 18 13 16 21 24 27 26 29 37 41 42 43 43 44 47 47 48 49 49 50 49 49 50 52 52 49 46 51 55 51 43 46 48 40 42 50 45 46 55 51 45 44 46 50 49 48 50 50 47 46 45 39 39 45 40 25 29 38 40 41 41 42 41 38 43 44 40 35
20 18 17 16 16 16 16 18 17 17 12 10 13 12 16 14 11 18 21 22 20 17 20 22 23 27 27 26 33 40 41 42 42 43 45 47 48 48 49 51 49 48 50 51 50 49 47 49 52 50 46 47 47 41 42 45 43 49 55 47 44 44 46 50 49 48 49 49 46 42 43 44 41 43 44 34 24 30 39 43 43 42 41 40 43 45 43 38
19 17 15 14 15 15 13 14 13 11 7 4 8 10 15 12 12 21 22 21 20 19 21 22 21 24 24 22 27 34 37 38 40 42 44 45 46 48 49 50 49 49 51 49 47 48 49 49 48 48 48 48 47 45 43 42 43 50 52 45 44 44 43 47 47 46 44 39 40 44 46 46 43 41 44 44 39 37 39 43 44 42 42 44 45 42 42 39
18 18 17 15 14 14 12 11 11 9 4 5 9 10 11 8 15 22 18 19 22 20 22 23 20 22 23 21 23 29 33 35 37 40 42 44 44 46 49 49 49 49 49 47 45 45 44 44 44 46 49 50 48 42 37 40 46 50 49 45 45 42 34 38 45 45 41 37 38 47 51 47 47 50 48 47 49 50 44 40 39 40 42 45 43 40 39 38
18 19 22 21 17 14 10 8 8 6 4 4 7 8 8 11 20 22 16 19 23 22 25 26 22 23 25 22 20 25 33 35 37 39 40 42 44 46 47 48 48 48 47 45 42 42 38 34 37 44 48 52 51 42 33 38 45 45 46 45 39 36 29 27 38 45 43 42 43 48 53 52 50 51 48 46 51 52 43 35 35 39 42 43 43 40 39 38
19 21 24 21 17 14 9 7 6 3 2 1 3 6 10 18 24 21 16 21 23 23 29 29 24 25 26 22 17 23 31 33 35 38 39 41 43 45 45 47 47 46 47 43 37 37 35 27 29 40 44 46 50 45 34 38 44 37 37 40 34 35 38 28 29 43 49 48 45 44 49 55 52 46 44 44 47 48 42 35 34 38 42 43 42 41 40 38
22 22 22 19 18 16 9 5 5 2 1 2 3 5 12 19 24 22 21 22 21 25 32 31 26 27 26 22 18 23 28 30 33 36 38 39 40 43 44 47 48 46 47 44 32 31 34 27 29 39 39 38 45 48 41 42 47 37 29 37 38 38 41 32 24 34 47 50 46 38 36 47 51 45 42 44 43 43 43 38 35 37 40 41 42 42 41 37
22 20 21 21 18 12 4 2 4 2 2 4 2 7 15 19 22 24 24 21 20 27 33 30 28 27 24 21 20 23 28 29 31 33 35 37 39 41 44 46 47 46 47 44 31 29 34 28 28 36 39 39 42 48 46 41 46 46 36 35 44 44 38 35 31 28 34 43 48 43 36 38 46 45 41 41 42 41 39 37 37 38 37 38 41 43 41 37
19 20 22 19 11 3 2 0 3 3 2 2 2 12 19 20 22 24 22 18 19 28 32 30 29 24 21 21 20 24 29 28 30 32 32 36 38 40 43 45 46 45 46 42 31 30 34 29 28 35 39 40 42 44 44 35 36 50 46 31 36 43 38 37 37 29 26 33 40 47 44 35 36 41 40 39 40 38 36 35 38 39 36 36 41 43 40 37
19 20 19 13 7 5 2 2 4 3 2 5 12 19 21 22 23 23 17 15 19 29 32 30 26 21 19 21 20 24 27 26 29 30 29 35 39 39 42 45 45 44 43 41 34 32 33 28 30 34 32 36 41 40 43 39 32 42 48 34 29 36 38 40 39 33 33 34 30 32 36 35 36 40 42 42 41 37 35 36 36 37 36 37 41 42 39 36
20 23 19 12 9 7 5 5 5 2 5 12 19 20 21 24 24 18 15 17 23 28 29 27 25 21 19 19 20 23 23 23 27 28 26 33 37 37 40 41 41 41 42 39 34 34 35 28 26 28 26 29 34 33 39 44 37 36 45 44 38 36 41 45 41 35 36 37 32 24 23 32 43 45 43 43 42 38 34 34 34 34 36 37 38 38 36 35
21 24 24 21 18 15 12 9 7 9 11 15 20 21 24 23 19 18 19 21 23 23 22 23 24 22 20 20 22 23 21 21 23 22 21 26 33 36 37 37 37 39 42 39 32 35 40 33 25 25 26 27 29 32 38 43 43 41 44 48 46 38 38 44 42 35 32 35 38 31 22 26 37 43 44 41 39 39 37 35 34 33 34 34 33 33 33 33
21 21 21 21 21 21 18 14 10 12 16 20 23 24 22 19 20 23 24 22 20 19 19 20 21 21 19 21 22 20 18 20 22 21 20 24 32 35 34 34 36 37 39 38 35 36 39 35 29 29 33 35 38 39 40 42 44 41 39 45 49 40 36 43 46 42 38 40 44 41 31 27 28 34 40 40 39 40 38 35 33 32 32 32 31 31 31 31
22 19 17 16 17 17 16 15 15 18 22 23 22 19 18 20 24 26 23 19 19 19 20 21 22 22 21 22 22 19 16 17 20 22 22 24 31 32 32 32 35 36 36 37 39 37 35 34 32 30 31 35 37 35 34 38 41 39 36 43 51 47 39 39 46 50 46 40 41 43 38 29 24 27 34 38 39 39 36 34 32 30 31 31 30 29 28 29
22 19 18 17 18 19 19 20 21 22 20 18 18 19 21 23 25 23 20 18 18 19 21 24 24 24 23 23 21 19 18 17 16 18 19 21 25 27 30 31 32 36 38 37 38 35 33 34 34 29 24 23 26 30 32 34 37 39 41 43 48 51 45 37 42 52 50 39 36 38 39 35 29 28 32 36 38 37 35 34 31 29 29 29 29 29 28 28
21 19 20 21 22 22 22 21 19 19 19 18 19 22 23 23 22 20 18 18 20 21 24 24 23 24 23 21 20 19 19 18 17 19 18 17 20 24 29 31 32 36 38 36 34 33 33 34 33 30 25 21 22 26 29 30 31 34 39 42 45 49 51 45 43 47 49 47 39 30 33 42 41 36 33 35 38 37 34 33 32 30 29 29 29 29 28 29
19 19 21 23 22 21 21 20 20 21 22 21 21 21 22 20 18 18 19 21 23 24 24 23 23 22 21 21 22 21 19 19 18 20 20 17 18 24 28 30 32 34 34 33 32 32 32 32 31 30 28 25 23 23 25 27 31 33 36 41 45 48 52 52 48 44 45 48 43 30 26 36 44 41 35 33 36 35 32 31 31 30 30 29 29 29 30 30
18 18 19 19 19 21 23 23 22 21 21 20 19 19 18 18 18 19 21 23 24 23 23 23 23 22 21 22 23 21 21 22 21 20 20 19 19 22 25 27 30 30 31 32 33 33 32 30 30 30 28 26 23 24 26 27 30 35 36 39 43 46 49 52 49 46 47 47 45 40 33 33 41 46 41 35 32 32 31 30 29 29 29 29 29 29 30 31
20 21 21 21 23 25 25 23 21 20 19 18 18 17 16 18 20 21 21 23 24 24 23 23 23 23 21 19 20 22 24 25 24 21 20 19 18 20 22 24 25 26 29 31 30 30 31 29 28 29 28 26 22 22 26 26 28 32 35 38 42 44 47 50 49 49 51 49 46 45 39 34 39 46 47 41 34 30 30 29 28 28 28 28 29 30 30 31
23 24 25 26 25 25 23 21 19 18 17 16 16 17 18 19 21 20 21 23 23 22 22 22 22 22 20 16 17 21 23 24 24 23 20 19 18 17 17 19 21 22 23 25 25 26 28 26 24 27 28 25 23 23 25 24 26 32 35 37 40 42 44 47 49 50 50 48 46 44 40 35 36 41 44 43 38 33 31 29 28 27 28 28 30 31 31 31
Wind_Direction
278 276 274 272 270 268 266 264 262 261 260 259 258 257 256 255 254 253 252 252 252 251 251 250 249 248 248 247 246 245 244 244 243 243 243 243 243 242 243 243 242 242 242 242 241 240 240 239 238 238 238 239 239 239 240 239 240 241 242 244 244 243 243 243 242 242 237 235 245 248 244 242 245 246 244 243 244 246 248 248 250 253 255 257 258 256 252 248
280 279 278 276 273 270 266 264 262 260 259 258 257 256 255 255 254 253 252 252 251 251 250 250 249 248 247 247 247 246 245 244 243 242 242 243 243 242 242 242 242 241 241 241 241 240 239 239 238 237 237 238 238 238 239 239 239 240 241 242 243 243 242 240 235 236 236 233 243 250 246 243 245 248 247 244 244 245 247 248 250 253 254 255 252 248 244 243
280 280 279 278 276 273 268 264 262 260 258 257 256 255 254 254 253 253 252 251 251 250 250 249 248 248 247 247 246 246 245 244 243 242 242 242 242 241 241 241 241 241 241 241 241 240 239 238 238 237 236 237 237 237 238 238 237 239 240 240 242 242 241 240 237 239 241 239 246 251 248 245 245 247 246 244 244 245 246 247 248 249 250 249 247 245 242 241
280 280 280 279 277 274 270 265 262 260 258 257 255 254 254 253 252 252 252 251 251 250 250 249 248 247 246 246 246 246 245 245 244 242 242 242 241 241 241 240 240 240 240 240 240 240 240 239 238 237 236 236 236 236 237 237 237 237 239 239 240 240 240 242 242 243 243 240 244 248 248 247 246 245 245 244 245 246 246 245 245 246 246 243 243 243 238 238
280 279 279 278 277 275 271 267 263 259 258 257 255 254 254 253 252 252 251 250 250 250 250 249 249 248 246 246 245 245 244 244 244 241 241 242 241 241 241 240 239 239 239 239 240 240 239 239 238 237 236 236 236 235 236 237 237 237 238 237 238 239 239 243 245 241 240 239 242 246 247 247 245 244 244 243 243 244 244 242 241 244 244 240 240 240 234 233
281 280 279 278 276 274 272 268 264 260 258 257 256 255 254 253 252 252 251 250 250 249 249 249 248 248 247 246 245 245 243 243 243 241 241 242 241 240 240 240 239 238 238 238 239 239 239 239 238 238 237 236 236 236 236 237 237 235 237 236 236 239 240 243 245 241 240 240 241 244 244 244 245 244 243 242 240 239 239 238 238 242 243 240 238 236 231 230
283 282 281 279 276 274 272 269 265 261 258 256 256 255 254 253 252 252 251 250 249 249 248 248 248 247 247 246 245 244 243 243 244 240 239 241 241 240 239 239 238 237 237 237 237 238 238 238 238 238 237 237 236 236 236 236 236 235 235 236 235 239 241 241 243 241 240 241 240 242 242 243 245 243 241 239 237 237 238 239 240 242 243 242 238 232 229 229
285 284 282 280 278 275 272 269 266 262 259 257 255 255 254 253 252 251 251 250 250 248 247 247 247 247 246 245 245 244 243 243 243 241 238 239 239 239 238 238 238 237 236 236 236 236 236 236 236 237 237 237 236 236 235 234 236 234 233 236 235 237 240 240 241 240 239 241 241 241 242 242 242 240 239 236 235 237 238 239 241 242 243 241 234 228 227 229
285 284 283 281 280 277 273 269 266 263 260 258 256 255 254 253 252 252 251 250 249 248 247 246 246 246 246 245 244 244 243 243 243 242 239 238 237 238 238 237 237 237 236 235 235 234 235 234 234 235 235 235 234 235 235 233 235 234 232 235 235 235 237 238 239 239 239 240 241 241 240 240 239 238 237 235 234 235 235 236 238 238 240 240 234 229 230 231
285 284 283 282 280 278 275 271 267 263 261 259 257 255 255 254 253 252 251 251 250 249 248 247 246 246 245 244 244 243 242 242 243 241 239 238 236 236 237 236 236 236 235 234 234 234 234 234 233 233 233 233 233 234 234 233 234 234 231 232 234 233 234 235 237 238 238 239 240 240 240 239 237 236 235 232 231 231 232 235 237 236 238 240 235 229 230 232
287 285 283 282 280 277 275 272 268 265 262 260 258 257 255 255 254 252 252 251 250 249 248 247 246 245 245 244 243 243 242 242 241 241 239 238 237 236 236 235 235 235 235 234 233 233 232 232 232 231 232 233 233 234 234 233 233 235 232 231 234 234 233 234 235 236 237 238 240 241 240 238 236 234 231 230 229 228 229 231 235 236 236 238 233 228 229 232
288 286 284 281 279 277 274 272 269 267 264 262 259 258 257 255 255 253 252 251 251 250 249 248 246 245 245 243 243 244 242 241 240 240 239 238 237 236 235 234 234 234 234 233 232 232 231 230 230 230 231 232 232 234 234 233 233 235 234 231 233 235 233 234 235 235 236 238 239 239 239 238 237 233 230 232 230 228 229 229 232 234 235 236 235 231 229 230
287 285 283 281 279 276 274 272 270 268 266 264 262 260 258 257 255 254 253 252 251 250 249 248 247 246 244 243 244 244 242 241 239 239 239 238 237 236 235 234 233 233 233 233 231 231 230 229 229 229 230 230 230 232 233 232 232 234 235 231 231 233 232 233 234 234 235 236 237 237 239 240 239 233 231 233 230 228 230 230 231 234 234 235 235 232 227 226
287 285 282 280 278 275 273 272 270 268 266 265 263 262 260 258 256 255 253 252 251 250 249 248 247 246 244 242 243 243 241 241 239 238 238 238 236 235 235 234 233 232 232 232 231 230 229 228 228 228 228 229 229 232 232 231 231 233 235 233 230 232 232 232 233 232 234 235 235 237 237 240 239 234 232 232 230 228 230 231 232 233 233 234 232 227 224 223
286 284 282 280 278 276 274 272 270 268 267 265 263 262 260 258 256 254 252 251 250 250 249 248 246 245 244 242 242 242 240 240 239 236 236 236 235 234 234 233 233 232 231 231 230 229 229 228 228 228 228 229 228 230 231 230 231 231 233 233 230 232 232 233 234 230 231 233 233 236 236 236 241 243 236 230 230 229 228 230 230 232 233 233 230 222 219 221
286 284 283 282 280 278 276 274 271 269 267 266 263 262 260 258 257 254 252 250 249 248 248 248 247 245 243 242 242 241 239 239 237 235 234 234 234 233 232 232 232 232 230 230 229 228 228 228 228 227 227 228 227 230 231 230 232 230 231 232 230 232 230 232 236 229 228 233 232 233 234 227 227 246 241 228 228 230 228 229 227 229 231 230 228 222 217 219
287 285 284 282 281 280 278 276 274 271 269 266 264 262 260 258 257 255 253 250 249 248 247 247 247 245 243 243 242 239 239 238 236 234 233 233 233 232 231 230 231 232 230 229 228 227 227 227 226 225 226 227 226 228 229 228 231 230 230 231 229 230 226 226 237 232 225 232 233 229 232 218 198 238 244 227 223 228 229 230 228 228 231 229 225 222 216 215
288 287 285 284 283 282 280 279 277 274 272 269 266 263 261 259 257 255 253 251 249 248 247 247 247 246 244 242 241 239 238 237 236 234 233 232 231 231 230 229 229 230 229 228 227 226 226 226 225 225 226 227 226 226 227 227 229 229 229 229 227 229 225 221 236 235 223 229 233 227 229 214 194 228 241 223 218 226 230 230 229 229 230 228 222 220 218 212
290 290 289 288 286 285 283 281 279 277 274 272 269 265 263 260 258 256 253 251 249 248 248 247 246 246 244 242 241 240 238 236 235 234 232 230 229 229 228 227 227 228 228 228 226 225 225 225 224 224 225 227 226 226 227 226 227 229 229 229 226 226 226 220 231 237 224 224 232 228 227 213 202 224 234 226 222 225 230 228 226 228 228 227 220 217 219 213
294 293 292 291 289 287 285 283 280 278 276 273 270 268 265 262 259 256 254 251 249 248 248 248 245 245 245 243 240 239 238 235 232 232 230 229 227 227 227 226 225 226 227 227 227 225 225 225 225 226 227 227 226 225 226 224 225 227 228 230 226 219 224 220 222 235 226 221 229 228 226 215 211 227 234 235 232 228 232 230 223 222 223 219 211 211 217 214
297 296 294 293 291 288 285 283 280 277 275 272 270 268 265 263 260 257 255 252 250 248 247 247 246 244 244 244 241 238 237 234 231 231 230 228 226 226 225 225 225 225 225 226 226 224 224 225 225 226 227 228 227 225 226 224 224 226 225 228 225 217 225 224 222 234 230 221 227 228 225 218 215 228 235 234 234 230 232 234 228 224 223 214 208 212 216 214
298 297 295 293 290 287 285 282 279 276 273 270 267 265 263 261 260 258 256 253 250 248 247 246 247 245 242 243 242 237 235 234 231 229 229 227 226 226 225 224 224 224 225 225 226 224 224 224 224 224 224 226 226 223 224 223 223 227 225 224 223 217 222 225 225 232 229 220 224 227 226 222 217 227 234 232 231 230 230 234 233 231 231 225 222 225 222 218
299 297 295 292 290 288 286 283 280 277 274 271 268 265 262 260 258 257 255 253 251 249 248 246 245 245 242 240 241 238 234 233 231 228 228 227 226 226 225 224 224 223 223 224 226 226 225 224 222 224 222 222 223 221 221 221 221 225 224 223 224 218 216 220 225 229 226 217 218 225 228 226 222 226 233 231 228 230 227 229 231 230 232 232 228 224 220 220
299 297 295 293 291 289 287 285 282 279 276 273 270 267 264 261 259 256 255 253 250 248 248 246 243 243 242 238 238 238 234 232 230 227 226 224 224 224 223 223 222 223 222 223 225 226 227 225 224 224 222 220 221 221 220 219 221 223 222 222 222 218 216 218 227 231 227 217 214 219 224 225 222 223 231 230 226 229 227 226 229 228 229 231 231 226 220 220
299 298 296 294 292 290 288 286 284 281 278 275 272 269 266 263 260 257 255 252 249 247 247 245 241 239 239 237 235 236 234 231 229 227 225 223 223 223 222 221 221 222 222 222 224 225 226 225 224 224 222 221 221 223 221 217 221 225 222 221 218 214 215 215 225 230 225 218 215 216 219 223 222 221 229 230 224 226 228 228 228 226 225 226 230 232 228 228
300 298 296 295 294 292 291 289 286 283 280 277 274 271 267 264 260 257 254 252 248 245 245 244 241 237 236 235 233 233 232 229 226 226 224 221 221 222 221 221 220 221 221 221 223 224 224 224 224 223 221 221 222 223 222 217 221 226 224 223 220 214 212 213 223 228 224 218 217 218 219 224 227 225 230 230 225 224 226 231 230 226 226 224 224 226 226 231
301 299 299 298 296 295 294 291 288 286 284 280 277 273 268 263 260 256 254 251 247 245 244 242 239 235 233 233 230 228 228 225 222 223 222 220 219 220 220 219 219 219 219 219 221 223 223 223 223 220 219 221 221 221 221 217 220 226 225 223 220 215 210 211 220 225 224 220 220 223 220 221 229 232 235 232 225 226 224 228 233 229 228 228 225 226 225 229
304 303 302 301 300 299 297 294 292 290 286 283 279 273 268 261 256 253 250 248 245 242 242 240 238 234 231 229 227 225 226 223 221 221 219 217 217 218 218 217 216 216 218 219 221 223 222 221 222 219 218 220 219 220 220 217 218 221 224 224 218 215 215 215 218 221 221 215 217 227 222 216 216 224 238 235 225 227 224 223 232 232 228 229 226 225 226 231
308 306 306 304 303 302 300 299 298 295 291 287 280 272 264 255 248 244 242 239 233 232 235 235 233 231 228 227 223 222 223 221 219 218 216 215 215 216 217 216 214 213 216 218 220 222 220 220 224 223 220 220 218 218 219 218 217 214 218 224 217 214 218 218 218 219 219 212 211 226 226 219 215 212 227 231 222 223 222 222 231 233 229 230 230 228 228 232
312 310 309 307 306 307 309 312 311 305 296 286 277 268 252 241 234 231 231 226 218 221 228 230 229 227 225 222 220 219 219 218 217 215 214 213 213 214 214 213 212 211 214 215 216 219 218 218 225 225 220 219 218 217 218 218 216 210 213 220 215 212 216 217 216 216 217 216 212 216 223 220 218 215 220 227 221 221 221 220 227 233 233 233 233 234 234 235
316 314 313 312 313 317 325 330 329 320 299 282 269 232 208 211 211 216 221 206 193 209 218 222 222 220 219 216 216 216 216 217 216 213 213 211 210 212 212 211 210 208 212 214 211 214 216 215 222 225 216 214 216 215 218 219 213 208 214 218 213 209 212 214 216 214 214 217 216 214 215 216 218 217 220 232 228 220 220 221 224 230 236 238 237 237 237 236
325 322 321 323 327 332 338 341 345 342 315 261 172 165 173 183 193 199 194 172 168 194 207 204 200 199 204 208 211 211 212 215 213 210 211 211 211 211 211 212 211 208 210 213 208 208 215 217 220 222 213 211 214 211 217 218 208 208 217 216 211 210 211 212 214 215 215 217 218 219 220 219 221 218 216 235 241 229 220 222 224 227 232 239 243 243 240 236
338 338 339 342 342 339 340 344 356 6 20 129 142 160 170 168 178 173 161 167 169 174 192 197 193 189 189 198 205 205 206 210 209 208 209 208 210 211 210 210 210 209 211 213 207 205 214 219 219 218 211 209 210 207 214 214 204 209 218 215 210 209 210 211 212 214 216 218 219 222 222 220 225 222 209 216 248 243 228 221 224 226 227 235 244 245 244 241
349 351 352 350 344 339 339 347 359 14 35 113 139 161 161 150 161 162 163 178 176 164 179 189 192 191 187 193 204 203 202 206 205 205 208 207 207 207 208 209 208 206 211 213 210 207 213 220 218 214 210 208 207 207 214 211 203 211 218 213 208 209 212 213 211 212 216 219 221 222 220 218 222 226 215 202 220 236 224 217 221 224 225 230 237 240 243 246
348 344 342 338 338 338 338 348 0 8 11 123 139 147 150 140 160 167 168 179 173 164 172 178 184 190 187 189 201 203 201 203 203 202 205 206 206 206 206 209 207 205 208 211 210 209 215 222 220 212 208 206 207 210 212 206 204 214 217 210 206 207 214 216 212 213 216 218 222 222 220 219 219 224 221 210 215 229 222 214 219 221 223 230 234 236 241 246
341 334 328 321 325 335 335 343 358 11 30 142 142 142 148 155 177 175 174 178 170 161 167 167 167 177 181 180 191 202 200 200 201 201 203 203 204 206 205 206 207 205 207 209 206 208 213 219 222 216 209 206 206 208 207 201 204 214 215 210 207 204 209 217 214 213 217 218 222 225 223 220 220 223 222 215 219 231 227 214 218 224 227 233 235 236 241 244
333 331 327 318 314 320 329 342 352 13 45 140 148 144 161 191 190 180 180 181 165 153 162 163 155 160 170 171 184 201 199 197 198 198 201 202 201 205 205 205 206 204 206 206 202 206 209 212 220 220 213 209 206 205 206 202 202 211 212 206 203 201 201 215 217 214 217 217 221 227 226 222 224 228 228 223 224 232 232 220 221 227 231 235 236 236 240 241
327 329 327 325 321 317 323 346 348 4 36 125 150 158 184 194 188 180 183 178 158 145 156 160 153 155 161 164 181 198 195 195 196 195 199 200 200 204 203 203 204 202 204 202 198 205 205 198 214 219 213 210 208 206 207 205 201 204 208 201 197 200 199 204 216 217 218 218 219 227 230 226 225 229 232 229 227 233 238 232 227 229 231 235 237 236 237 239
322 325 325 327 325 317 312 339 354 1 52 68 104 171 187 187 185 184 181 170 150 143 154 157 155 155 158 159 173 189 189 191 194 194 197 198 200 203 202 203 202 198 201 199 193 202 199 195 216 219 211 207 208 206 208 210 205 198 199 200 199 201 201 201 210 215 218 219 218 221 230 230 226 226 231 234 230 230 236 238 234 233 232 233 237 238 236 237
327 330 330 328 322 317 305 339 357 25 100 68 78 190 187 186 189 187 175 158 145 147 153 158 157 156 160 161 166 179 182 186 191 191 194 197 200 202 202 203 200 197 199 196 191 199 195 196 219 221 212 207 207 207 207 212 212 205 199 200 202 202 201 205 212 213 214 218 220 220 224 231 230 226 229 236 235 230 232 238 238 236 233 231 235 237 235 235
341 342 341 339 339 0 132 301 8 58 82 37 215 196 190 191 191 180 163 145 144 150 154 158 156 153 160 161 162 172 176 184 189 186 191 197 199 201 203 202 199 197 197 192 192 199 193 194 212 217 215 209 206 208 206 206 212 210 204 198 200 204 204 208 213 213 209 212 220 225 224 228 233 229 227 233 236 232 230 232 235 235 231 228 231 234 232 231
1 1 357 0 28 62 88 78 67 58 277 209 187 186 188 186 176 162 142 128 143 153 157 158 152 143 151 159 162 168 174 186 187 181 189 197 197 200 203 201 197 195 195 192 195 196 191 197 211 214 212 205 204 208 207 206 209 209 207 204 199 203 207 210 211 213 214 209 212 225 227 227 231 229 226 229 233 233 229 229 231 233 230 226 228 230 228 226
24 28 28 36 52 63 79 74 77 121 198 182 177 178 176 168 155 136 118 126 146 156 158 162 160 147 142 150 156 160 171 188 185 180 190 196 195 200 203 200 194 192 193 194 197 195 190 193 204 206 202 198 202 207 207 208 209 207 210 210 206 206 210 212 211 215 221 216 210 214 222 227 232 231 228 228 231 231 229 229 231 231 231 229 228 228 226 223
34 37 40 49 55 61 73 72 94 138 154 164 166 161 155 147 126 109 116 132 145 152 155 162 166 157 145 148 153 156 167 177 176 181 193 195 196 199 199 196 191 192 195 195 196 199 194 188 188 191 187 186 195 204 206 208 210 211 214 212 210 211 211 211 210 213 220 219 213 211 214 225 231 231 229 227 229 231 229 228 230 230 231 232 229 227 224 221
37 35 37 46 52 55 62 65 90 132 144 148 148 141 133 117 102 112 127 136 140 140 142 151 159 156 150 149 148 151 162 168 170 177 184 192 198 198 193 191 190 193 197 196 198 203 200 194 193 194 193 196 202 206 208 209 208 210 214 210 208 209 210 212 212 211 217 221 218 213 214 224 229 229 228 227 227 230 229 227 229 229 230 230 227 223 219 218
37 37 39 52 64 68 75 86 107 127 134 134 128 115 101 99 110 125 134 137 133 128 131 141 149 150 149 146 143 144 151 163 175 178 180 192 199 194 188 189 190 190 193 198 202 204 201 200 202 203 205 210 212 209 208 210 209 211 213 209 207 209 209 212 215 214 216 222 222 216 214 220 228 225 223 224 225 227 228 228 227 227 227 227 225 218 213 213
43 50 59 70 81 89 99 109 114 118 118 109 99 92 95 110 125 132 133 131 125 122 127 135 142 143 143 144 142 142 144 150 162 167 176 195 199 191 187 188 189 191 194 200 203 200 198 201 201 200 203 210 214 214 214 217 219 219 217 211 208 210 211 211 216 215 215 219 223 221 219 218 226 231 226 223 224 224 224 226 225 224 224 224 222 215 206 204
56 66 74 80 86 92 99 101 96 92 87 83 89 100 111 125 132 132 129 125 121 121 123 128 135 136 137 140 139 137 138 139 147 156 167 187 192 188 188 188 189 194 197 198 200 197 198 203 201 194 195 201 209 214 217 220 223 221 219 214 210 210 211 213 216 213 212 218 220 223 226 222 225 237 237 227 224 222 220 222 221 221 220 219 219 214 203 200
69 78 83 84 83 80 77 76 77 84 90 94 102 114 123 129 128 125 125 122 118 118 119 122 127 128 131 137 135 133 138 144 152 161 163 171 183 185 186 189 192 195 196 195 197 195 196 203 202 194 196 206 211 211 211 216 220 217 215 215 213 213 212 213 216 214 212 216 216 213 222 220 218 229 237 230 226 223 220 220 220 219 218 217 216 213 207 203
70 75 76 75 70 63 65 75 89 102 108 110 114 121 125 120 114 116 117 114 111 111 115 119 121 126 135 140 140 144 155 159 159 165 167 166 172 179 184 191 195 195 194 194 196 195 194 198 199 194 198 207 208 208 210 214 220 218 216 215 215 216 216 215 217 216 212 214 214 213 218 217 214 221 228 228 225 223 221 220 220 220 219 218 216 214 212 208
58 58 57 55 56 62 75 91 107 116 117 116 117 119 114 106 105 108 107 106 106 106 109 114 119 127 134 135 142 155 162 162 158 164 172 166 162 172 182 190 194 195 197 197 196 196 198 199 196 193 199 204 201 203 208 212 219 219 217 217 215 215 218 219 221 222 218 216 217 219 220 220 218 220 224 227 227 224 221 220 221 221 220 219 217 216 215 213
55 59 64 66 68 76 88 100 111 116 113 111 110 105 102 101 104 107 104 104 107 105 103 108 117 128 134 135 149 160 160 159 159 161 164 159 158 169 176 183 191 192 195 200 198 197 200 201 198 197 202 206 204 205 208 209 213 215 215 217 216 214 216 219 221 224 224 221 221 222 219 219 224 224 223 225 227 225 222 220 221 222 219 218 218 217 217 217